Regional Weather Roundup
Issued by NWS

Home | Current Version | Previous Version | Text Only | Print | Product List | Glossary Off
Versions: 1 2 3 4 5 6 7 8 9 10 11 12 13 14 15 16 17 18 19 20 21 22 23 24 25 26 27 28 29 30 31 32 33 34 35 36 37 38 39 40 41 42 43 44 45 46 47 48 49 50

000
ASUS43 KOAX 071102
RWRNE

WEATHER ROUNDUP FOR NEBRASKA
NATIONAL WEATHER SERVICE OMAHA NE
600 AM CDT TUE JUL 07 2015

NOTES: SATELLITE DATA IS BEING USED TO AUGMENT CLOUD COVER ABOVE
       12000 FEET.
       "FAIR" INDICATES FEW OR NO CLOUDS BELOW 12,000 FEET WITH NO
       SIGNIFICANT WEATHER AND/OR OBSTRUCTIONS TO VISIBILITY.

  * THESE STATIONS DO NOT REPORT WEATHER SUCH AS RAIN...SNOW OR FOG.

NEZ001>004-019>022-054>056-071200-
NEBRASKA PANHANDLE

CITY           SKY/WX    TMP DP  RH WIND       PRES   REMARKS
SCOTTSBLUFF    CLOUDY    61  55  81 SE7       30.20F HAZE
ALLIANCE       PTCLDY    51  50  96 SE6       30.20F FOG
CHADRON        PTCLDY    58  55  90 CALM      30.17F
KIMBALL          N/A    N/A N/A N/A MISG        N/A
SIDNEY         CLOUDY    57  53  86 S7        30.23F
$$

NEZ057>060-069>072-079>082-071200-
SOUTHWEST NEBRASKA

CITY           SKY/WX    TMP DP  RH WIND       PRES   REMARKS
NORTH PLATTE   CLEAR     51  49  92 CALM      30.19F
IMPERIAL       CLEAR     55  51  86 SE3       30.20S
LEXINGTON      CLEAR     52  50  94 CALM      30.18S FOG
MCCOOK         CLEAR     54  52  93 CALM      30.18S FOG
$$

NEZ005>010-023>029-035>040-094-071200-
NORTH CENTRAL NEBRASKA

CITY           SKY/WX    TMP DP  RH WIND       PRES   REMARKS
VALENTINE      CLEAR     52  51  97 CALM      30.19S
AINSWORTH      CLEAR     54  54  98 CALM      30.20S FOG
BROKEN BOW     CLEAR     52  49  89 N7        30.17F FOG
ORD            CLEAR     50  49  96 NW5       30.16S FOG
$$

NEZ041-046>049-061>064-073>077-083>087-071200-
SOUTH CENTRAL NEBRASKA

CITY           SKY/WX    TMP DP  RH WIND       PRES   REMARKS
GRAND ISLAND   CLEAR     53  52  96 N6        30.17R FOG
AURORA           N/A     55  55 100 N6        30.16R FOG
HASTINGS       CLEAR     55  53  93 N7        30.15S FOG
KEARNEY *      CLEAR     54  48  82 N7        30.16S
$$

NEZ011>018-030>034-042>045-071200-
NORTHEAST NEBRASKA

CITY           SKY/WX    TMP DP  RH WIND       PRES   REMARKS
NORFOLK        CLEAR     53  52  96 CALM      30.16R FOG
BLAIR          CLEAR     55  50  83 N6        30.12R
FREMONT        CLEAR     56  50  79 CALM      30.14R
TEKAMAH        CLEAR     53  50  89 N8        30.13R
$$

NEZ050>053-065>068-078-088>093-071200-
SOUTHEAST NEBRASKA

CITY           SKY/WX    TMP DP  RH WIND       PRES   REMARKS
LINCOLN        PTCLDY    54  51  90 N8        30.13R
OMAHA EPPLEY   PTCLDY    54  51  90 N6        30.12R
FALLS CITY     CLEAR     60  55  83 N8        30.07R
PLATTSMOUTH    PTCLDY    56  49  75 N7        30.11R
$$

NEZ044-045-051>053-067-071200-
OMAHA AREA

CITY           SKY/WX    TMP DP  RH WIND       PRES   REMARKS
OMAHA EPPLEY   PTCLDY    54  51  90 N6        30.12R
BLAIR          CLEAR     55  50  83 N6        30.12R
FREMONT        CLEAR     56  50  79 CALM      30.14R
MILLARD        PTCLDY    58  51  76 CALM      30.12R
OFFUTT AFB     PTCLDY    58  49  71 NE9       30.11R
PLATTSMOUTH    PTCLDY    56  49  75 N7        30.11R
$$


USA.gov is the U.S. government's official web portal to all federal, state and local government web resources and services.